Regional Weather Roundup
Issued by NWS Cleveland, OH

Home | Current Version | Previous Version | Graphics & Text | Print | Product List | Glossary On
Versions: 1 2 3 4 5 6 7 8 9 10 11 12 13 14 15 16 17 18 19 20 21 22 23 24 25 26 27 28 29 30 31 32 33 34 35 36 37 38 39 40 41 42 43 44 45 46 47 48 49 50
000
ASUS41 KCLE 271810
RWRCLE
OHIO REGIONAL WEATHER ROUNDUP
NATIONAL WEATHER SERVICE WILMINGTON, OH
100 PM EST TUE JAN 27 2015

NOTE: "FAIR" INDICATES FEW OR NO CLOUDS BELOW 12,000 FEET WITH NO
SIGNIFICANT WEATHER AND/OR OBSTRUCTIONS TO VISIBILITY.

OHZ001>008-015>018-024>027-034-035-043-044-271900-
   NORTHWEST OHIO

CITY           SKY/WX    TMP DP  RH WIND       PRES   REMARKS
DEFIANCE       SUNNY     23  11  60 NE6       30.12F WCI  16
FINDLAY        SUNNY     22  12  65 N8        30.09F WCI  12
TOLEDO EXPRESS SUNNY     23  13  65 NW9       30.11F WCI  13
TOLEDO EXEC    MOSUNNY   23  11  60 N5        30.12F WCI  17
LIMA           SUNNY     20  11  68 N9        30.09F WCI   9
$$

OHZ009>014-019>023-028>033-038-089-271900-
   NORTHEAST OHIO

CITY           SKY/WX    TMP DP  RH WIND       PRES   REMARKS
CLE-HOPKINS    FLURRIES  19  13  77 NW14      30.08S WCI   6
CLE-LAKEFRONT  MOSUNNY   20  12  71 NW9       30.07R WCI   9
CUY CO. ARPT   FLURRIES  21  16  79 N13       30.05S WCI   9
LORAIN-ELYRIA  PTSUNNY   19  11  70 N10       30.07R WCI   7
ASHTABULA      FLURRIES  19  13  77 N10       30.02S WCI   7
AKRON-CANTON   FLURRIES  21  11  65 N12       29.99S WCI   9
WOOSTER        CLOUDY    20  12  71 N12       30.02S WCI   8
MANSFIELD      CLOUDY    18  12  77 NW13      30.02S HAZE    WCI   5
YOUNGSTOWN     FLURRIES  19  14  81 N16       29.97S WCI   4
$$

OHZ042-051>053-060>062-070>072-077>081-271900-
  SOUTHWEST OHIO

CITY           SKY/WX    TMP DP  RH WIND       PRES   REMARKS
CINC-COVINGTON MOSUNNY   28  14  55 VRB5      30.07F WCI  23
CINC-LUNKEN    MOSUNNY   29  14  53 N8        30.11F WCI  21
HAMILTON       FLURRIES  26  15  63 NE7       30.11F WCI  18
DAYTON         MOSUNNY   23  13  65 N9        30.09F WCI  13
WRIGHT-PAT AFB MOSUNNY   23  13  66 N5        30.09F WCI  16
DAYTON GENERAL PTSUNNY   23  13  65 N8        30.07F WCI  14
WILMINGTON     PTSUNNY   21  12  68 NE9       30.06S WCI  11
$$

OHZ036-037-039>041-045>050-054>059-063>069-073>076-082>088-271900-
  CENTRAL AND SOUTHEAST OHIO

CITY           SKY/WX    TMP DP  RH WIND       PRES   REMARKS
COLUMBUS       MOSUNNY   22  12  65 N12G18    30.06S WCI  10
OSU AIRPORT    MIX PCPN  20  12  71 NW13      30.06F WCI   7
BOLTON FIELD   MOSUNNY   19  12  73 NW12      30.07S WCI   7
RICKENBACK AFB CLOUDY    22  14  70 N12       30.06S WCI  10
NEWARK         CLOUDY    23  13  65 VRB6      30.03F WCI  16
MARION         SUNNY     19  12  74 N10       30.08R WCI   7
LANCASTER      CLOUDY    22  13  68 N10       30.05F WCI  11
ZANESVILLE     LGT SNOW  21  14  74 NW10      30.02F WCI  10
NEW PHILLY     CLOUDY    23  12  62 NW7       30.01S WCI  15
$$



USA.gov is the U.S. government's official web portal to all federal, state and local government web resources and services.